Time,TemperatureF,DewpointF,PressureIn,WindDirection,WindDirectionDegrees,WindSpeedMPH,WindSpeedGustMPH,Humidity,HourlyPrecipIn,Conditions,Clouds,dailyrainin,SolarRadiationWatts/m^2,SoftwareType,DateUTC
2013-06-20 00:04:00,54.9,44.1,30.02,South,185,0.0,0.0,67,0.00,,,0.00,0,Wunderground v.1.15,2013-06-20 07:04:00,
2013-06-20 00:14:00,54.8,43.7,30.02,South,187,2.0,2.0,66,0.00,,,0.00,0,Wunderground v.1.15,2013-06-20 07:14:00,
2013-06-20 00:19:00,54.8,45.2,30.02,SSW,195,0.0,0.0,70,0.00,,,0.00,0,Wunderground v.1.15,2013-06-20 07:19:00,
2013-06-20 00:24:00,54.7,46.2,30.02,SSW,195,1.0,1.0,73,0.00,,,0.00,0,Wunderground v.1.15,2013-06-20 07:24:00,
2013-06-20 00:29:00,54.6,47.2,30.02,South,171,2.0,2.0,76,0.00,,,0.00,0,Wunderground v.1.15,2013-06-20 07:29:00,
2013-06-20 00:34:00,54.6,46.1,30.02,SSW,211,1.0,2.0,73,0.00,,,0.00,0,Wunderground v.1.15,2013-06-20 07:34:00,
2013-06-20 00:44:00,54.4,42.5,30.02,SW,220,2.0,2.0,64,0.00,,,0.00,0,Wunderground v.1.15,2013-06-20 07:44:00,
2013-06-20 00:49:00,54.3,44.0,30.02,SSW,213,4.0,4.0,68,0.00,,,0.00,0,Wunderground v.1.15,2013-06-20 07:49:00,
2013-06-20 00:59:00,54.0,40.8,30.02,SSW,199,2.0,2.0,61,0.00,,,0.00,0,Wunderground v.1.15,2013-06-20 07:59:00,
2013-06-20 01:04:00,54.0,40.8,30.02,SSW,195,6.0,6.0,61,0.00,,,0.00,0,Wunderground v.1.15,2013-06-20 08:04:00,
2013-06-20 01:09:00,53.9,41.6,30.01,South,182,0.0,0.0,63,0.00,,,0.00,0,Wunderground v.1.15,2013-06-20 08:09:00,
2013-06-20 01:19:00,53.7,42.2,30.01,SSW,196,2.0,2.0,65,0.00,,,0.00,0,Wunderground v.1.15,2013-06-20 08:19:00,
2013-06-20 01:24:00,53.7,41.8,30.01,SSW,194,4.0,4.0,64,0.00,,,0.00,0,Wunderground v.1.15,2013-06-20 08:24:00,
2013-06-20 01:29:00,53.6,42.1,30.01,West,263,0.0,0.0,65,0.00,,,0.00,0,Wunderground v.1.15,2013-06-20 08:29:00,
2013-06-20 01:39:00,53.4,40.7,30.01,South,190,3.0,3.0,62,0.00,,,0.00,0,Wunderground v.1.15,2013-06-20 08:39:00,
2013-06-20 01:49:00,53.2,40.1,30.01,SSW,193,0.0,0.0,61,0.00,,,0.00,0,Wunderground v.1.15,2013-06-20 08:49:00,
2013-06-20 01:54:00,53.1,40.0,30.00,South,178,3.0,3.0,61,0.00,,,0.00,0,Wunderground v.1.15,2013-06-20 08:54:00,
2013-06-20 01:59:00,53.2,40.9,30.00,SSW,198,2.0,2.0,63,0.00,,,0.00,0,Wunderground v.1.15,2013-06-20 08:59:00,
2013-06-20 02:09:00,53.2,45.8,30.00,South,186,0.0,0.0,76,0.00,,,0.00,0,Wunderground v.1.15,2013-06-20 09:09:00,
2013-06-20 02:19:00,53.1,45.7,30.00,SSW,199,3.0,3.0,76,0.00,,,0.00,0,Wunderground v.1.15,2013-06-20 09:19:00,
2013-06-20 02:29:00,53.2,44.4,30.00,SSW,194,3.0,3.0,72,0.00,,,0.00,0,Wunderground v.1.15,2013-06-20 09:29:00,
2013-06-20 02:39:00,53.1,45.4,30.00,SSW,192,3.0,3.0,75,0.00,,,0.00,0,Wunderground v.1.15,2013-06-20 09:39:00,
2013-06-20 02:44:00,53.0,42.7,30.00,SSW,196,2.0,3.0,68,0.00,,,0.00,0,Wunderground v.1.15,2013-06-20 09:44:00,
2013-06-20 02:49:00,52.8,41.7,29.99,South,186,3.0,3.0,66,0.00,,,0.00,0,Wunderground v.1.15,2013-06-20 09:49:00,
2013-06-20 02:59:00,52.7,41.3,29.99,South,186,0.0,0.0,65,0.00,,,0.00,0,Wunderground v.1.15,2013-06-20 09:59:00,
2013-06-20 03:09:00,52.4,43.6,29.99,South,175,3.0,3.0,72,0.00,,,0.00,0,Wunderground v.1.15,2013-06-20 10:09:00,
2013-06-20 03:19:00,52.0,49.2,29.99,South,175,2.0,2.0,90,0.00,,,0.00,0,Wunderground v.1.15,2013-06-20 10:19:00,
2013-06-20 03:29:00,52.0,49.5,29.99,South,171,1.0,1.0,91,0.00,,,0.00,0,Wunderground v.1.15,2013-06-20 10:29:00,
2013-06-20 03:34:00,51.9,49.4,29.99,South,173,3.0,3.0,91,0.00,,,0.00,0,Wunderground v.1.15,2013-06-20 10:34:00,
2013-06-20 03:39:00,51.8,49.3,29.99,South,170,3.0,3.0,91,0.00,,,0.00,0,Wunderground v.1.15,2013-06-20 10:39:00,
2013-06-20 03:49:00,51.8,49.5,29.98,SSW,197,4.0,4.0,92,0.00,,,0.00,0,Wunderground v.1.15,2013-06-20 10:49:00,
2013-06-20 03:59:00,51.9,49.6,29.98,SSW,200,3.0,3.0,92,0.00,,,0.00,0,Wunderground v.1.15,2013-06-20 10:59:00,
2013-06-20 04:04:00,52.0,49.7,29.98,SSW,194,1.0,3.0,92,0.00,,,0.00,0,Wunderground v.1.15,2013-06-20 11:04:00,
2013-06-20 04:09:00,52.0,49.7,29.98,SSW,201,3.0,3.0,92,0.00,,,0.00,0,Wunderground v.1.15,2013-06-20 11:09:00,
2013-06-20 04:19:00,51.8,49.5,29.97,SW,214,1.0,1.0,92,0.00,,,0.00,0,Wunderground v.1.15,2013-06-20 11:19:00,
2013-06-20 04:24:00,51.7,49.5,29.97,SW,214,1.0,1.0,92,0.00,,,0.00,0,Wunderground v.1.15,2013-06-20 11:24:00,
2013-06-20 04:29:00,51.4,49.2,29.97,South,181,3.0,3.0,92,0.00,,,0.00,0,Wunderground v.1.15,2013-06-20 11:29:00,
2013-06-20 04:39:00,51.2,48.7,29.98,South,181,1.0,1.0,91,0.00,,,0.00,0,Wunderground v.1.15,2013-06-20 11:39:00,
2013-06-20 04:49:00,51.0,48.8,29.98,South,181,2.0,2.0,92,0.00,,,0.00,0,Wunderground v.1.15,2013-06-20 11:49:00,
2013-06-20 04:54:00,51.0,49.0,29.98,South,181,3.0,3.0,93,0.00,,,0.00,0,Wunderground v.1.15,2013-06-20 11:54:00,
2013-06-20 05:04:00,51.0,49.0,29.98,South,187,3.0,3.0,93,0.00,,,0.00,0,Wunderground v.1.15,2013-06-20 12:04:00,
2013-06-20 05:09:00,51.1,49.1,29.98,South,187,0.0,0.0,93,0.00,,,0.00,0,Wunderground v.1.15,2013-06-20 12:09:00,
2013-06-20 05:19:00,51.1,49.1,29.98,South,187,1.0,1.0,93,0.00,,,0.00,0,Wunderground v.1.15,2013-06-20 12:19:00,
2013-06-20 05:24:00,51.1,49.1,29.98,South,187,2.0,2.0,93,0.00,,,0.00,0,Wunderground v.1.15,2013-06-20 12:24:00,
2013-06-20 05:29:00,50.9,49.2,29.98,SSW,198,2.0,2.0,94,0.00,,,0.00,0,Wunderground v.1.15,2013-06-20 12:29:00,
2013-06-20 05:39:00,50.7,48.5,29.98,SSW,198,1.0,1.0,92,0.00,,,0.00,0,Wunderground v.1.15,2013-06-20 12:39:00,
2013-06-20 05:44:00,50.7,47.9,29.99,SSW,195,1.0,1.0,90,0.00,,,0.00,0,Wunderground v.1.15,2013-06-20 12:44:00,
2013-06-20 05:54:00,50.6,48.7,29.99,SSW,195,2.0,2.0,93,0.00,,,0.00,0,Wunderground v.1.15,2013-06-20 12:54:00,
2013-06-20 05:59:00,50.5,48.6,29.99,SSW,195,0.0,0.0,93,0.00,,,0.00,0,Wunderground v.1.15,2013-06-20 12:59:00,
2013-06-20 06:09:00,50.4,41.7,29.99,SSW,195,0.0,0.0,72,0.00,,,0.00,0,Wunderground v.1.15,2013-06-20 13:09:00,
2013-06-20 06:14:00,50.3,44.4,29.99,SSW,195,1.0,1.0,80,0.00,,,0.00,0,Wunderground v.1.15,2013-06-20 13:14:00,
2013-06-20 06:19:00,50.3,45.6,29.99,SSW,195,0.0,0.0,84,0.00,,,0.00,0,Wunderground v.1.15,2013-06-20 13:19:00,
2013-06-20 06:29:00,50.5,46.5,29.99,SSW,195,0.0,0.0,86,0.00,,,0.00,0,Wunderground v.1.15,2013-06-20 13:29:00,
2013-06-20 06:39:00,50.8,46.8,30.00,SSW,195,0.0,0.0,86,0.00,,,0.00,0,Wunderground v.1.15,2013-06-20 13:39:00,
2013-06-20 06:44:00,50.9,46.6,29.99,SSW,195,0.0,0.0,85,0.00,,,0.00,0,Wunderground v.1.15,2013-06-20 13:44:00,
2013-06-20 06:54:00,51.3,46.9,29.99,SSW,195,1.0,1.0,85,0.00,,,0.00,0,Wunderground v.1.15,2013-06-20 13:54:00,
2013-06-20 06:59:00,51.5,47.5,29.99,SSW,195,0.0,0.0,86,0.00,,,0.00,0,Wunderground v.1.15,2013-06-20 13:59:00,
2013-06-20 07:09:00,51.8,48.1,30.00,SSW,195,0.0,0.0,87,0.00,,,0.00,0,Wunderground v.1.15,2013-06-20 14:09:00,
2013-06-20 07:19:00,52.1,48.0,30.00,SSW,195,0.0,0.0,86,0.00,,,0.00,0,Wunderground v.1.15,2013-06-20 14:19:00,
2013-06-20 07:24:00,52.6,48.5,30.00,SSW,195,1.0,1.0,86,0.00,,,0.00,0,Wunderground v.1.15,2013-06-20 14:24:00,
2013-06-20 07:34:00,53.2,49.1,30.00,SSW,195,1.0,1.0,86,0.00,,,0.00,0,Wunderground v.1.15,2013-06-20 14:34:00,
2013-06-20 07:44:00,53.7,49.3,30.00,SSW,195,1.0,1.0,85,0.00,,,0.00,0,Wunderground v.1.15,2013-06-20 14:44:00,
2013-06-20 07:49:00,54.0,49.3,30.00,SSW,195,1.0,1.0,84,0.00,,,0.00,0,Wunderground v.1.15,2013-06-20 14:49:00,
2013-06-20 07:54:00,54.3,49.6,30.00,SSW,195,0.0,1.0,84,0.00,,,0.00,0,Wunderground v.1.15,2013-06-20 14:54:00,
2013-06-20 07:59:00,54.7,50.0,30.00,SSW,195,0.0,0.0,84,0.00,,,0.00,0,Wunderground v.1.15,2013-06-20 14:59:00,
2013-06-20 08:09:00,55.4,50.0,30.00,SSW,195,0.0,0.0,82,0.00,,,0.00,0,Wunderground v.1.15,2013-06-20 15:09:00,
2013-06-20 08:19:00,56.4,51.0,30.00,West,259,1.0,1.0,82,0.00,,,0.00,0,Wunderground v.1.15,2013-06-20 15:19:00,
2013-06-20 08:24:00,57.2,50.7,30.00,West,264,0.0,1.0,79,0.00,,,0.00,0,Wunderground v.1.15,2013-06-20 15:24:00,
2013-06-20 08:29:00,57.7,47.6,30.00,West,265,1.0,1.0,69,0.00,,,0.00,0,Wunderground v.1.15,2013-06-20 15:29:00,
2013-06-20 08:39:00,58.7,44.8,30.00,West,280,0.0,0.0,60,0.00,,,0.00,0,Wunderground v.1.15,2013-06-20 15:39:00,
2013-06-20 08:44:00,59.2,47.8,29.99,SSW,195,0.0,0.0,66,0.00,,,0.00,0,Wunderground v.1.15,2013-06-20 15:44:00,
2013-06-20 08:49:00,59.8,44.5,30.00,West,280,2.0,2.0,57,0.00,,,0.00,0,Wunderground v.1.15,2013-06-20 15:49:00,
2013-06-20 08:59:00,60.6,44.8,30.00,WNW,294,0.0,0.0,56,0.00,,,0.00,0,Wunderground v.1.15,2013-06-20 15:59:00,
2013-06-20 09:09:00,61.5,45.7,30.00,West,273,0.0,0.0,56,0.00,,,0.00,0,Wunderground v.1.15,2013-06-20 16:09:00,
2013-06-20 09:14:00,61.9,50.4,30.00,WNW,303,1.0,1.0,66,0.00,,,0.00,0,Wunderground v.1.15,2013-06-20 16:14:00,
2013-06-20 09:19:00,62.0,52.5,30.00,North,0,1.0,1.0,71,0.00,,,0.00,0,Wunderground v.1.15,2013-06-20 16:19:00,
2013-06-20 09:29:00,62.6,53.4,30.00,NW,308,2.0,2.0,72,0.00,,,0.00,0,Wunderground v.1.15,2013-06-20 16:29:00,
2013-06-20 09:39:00,63.2,54.0,29.99,NNW,338,1.0,1.0,72,0.00,,,0.00,0,Wunderground v.1.15,2013-06-20 16:39:00,
2013-06-20 09:44:00,63.6,54.0,29.99,NW,314,3.0,3.0,71,0.00,,,0.00,0,Wunderground v.1.15,2013-06-20 16:44:00,
2013-06-20 09:49:00,64.2,54.2,29.99,NW,316,1.0,1.0,70,0.00,,,0.00,0,Wunderground v.1.15,2013-06-20 16:49:00,
2013-06-20 09:54:00,64.9,54.5,29.98,WNW,292,1.0,1.0,69,0.00,,,0.00,0,Wunderground v.1.15,2013-06-20 16:54:00,
2013-06-20 09:59:00,65.2,54.8,29.98,NW,324,0.0,0.0,69,0.00,,,0.00,0,Wunderground v.1.15,2013-06-20 16:59:00,
2013-06-20 10:09:00,65.8,54.9,29.98,NW,308,2.0,2.0,68,0.00,,,0.00,0,Wunderground v.1.15,2013-06-20 17:09:00,
2013-06-20 10:19:00,66.0,55.1,29.98,WNW,282,2.0,2.0,68,0.00,,,0.00,0,Wunderground v.1.15,2013-06-20 17:19:00,
2013-06-20 10:24:00,67.1,47.8,29.98,NW,321,3.0,3.0,50,0.00,,,0.00,0,Wunderground v.1.15,2013-06-20 17:24:00,
2013-06-20 10:29:00,67.5,54.0,29.98,WNW,299,0.0,0.0,62,0.00,,,0.00,0,Wunderground v.1.15,2013-06-20 17:29:00,
2013-06-20 10:39:00,67.9,51.6,29.97,NNW,341,4.0,4.0,56,0.00,,,0.00,0,Wunderground v.1.15,2013-06-20 17:39:00,
2013-06-20 10:49:00,68.7,56.0,29.97,NNW,329,2.0,2.0,64,0.00,,,0.00,0,Wunderground v.1.15,2013-06-20 17:49:00,
2013-06-20 10:54:00,69.6,54.2,29.97,WNW,288,2.0,2.0,58,0.00,,,0.00,0,Wunderground v.1.15,2013-06-20 17:54:00,
2013-06-20 10:59:00,70.3,54.3,29.97,NNW,335,1.0,1.0,57,0.00,,,0.00,0,Wunderground v.1.15,2013-06-20 17:59:00,
2013-06-20 11:09:00,70.7,57.0,29.97,NW,304,2.0,2.0,62,0.00,,,0.00,0,Wunderground v.1.15,2013-06-20 18:09:00,
2013-06-20 11:14:00,71.2,57.1,29.97,NW,311,1.0,2.0,61,0.00,,,0.00,0,Wunderground v.1.15,2013-06-20 18:14:00,
2013-06-20 11:19:00,71.1,57.0,29.98,NNW,329,2.0,2.0,61,0.00,,,0.00,0,Wunderground v.1.15,2013-06-20 18:19:00,
2013-06-20 11:29:00,71.2,57.1,29.97,North,0,3.0,3.0,61,0.00,,,0.00,0,Wunderground v.1.15,2013-06-20 18:29:00,
2013-06-20 11:39:00,72.7,58.0,29.97,North,359,0.0,0.0,60,0.00,,,0.00,0,Wunderground v.1.15,2013-06-20 18:39:00,
2013-06-20 11:44:00,72.5,57.4,29.97,NNW,328,2.0,2.0,59,0.00,,,0.00,0,Wunderground v.1.15,2013-06-20 18:44:00,
2013-06-20 11:49:00,72.5,57.4,29.97,NW,324,3.0,3.0,59,0.00,,,0.00,0,Wunderground v.1.15,2013-06-20 18:49:00,
2013-06-20 11:59:00,73.9,56.2,29.97,West,279,1.0,1.0,54,0.00,,,0.00,0,Wunderground v.1.15,2013-06-20 18:59:00,
2013-06-20 12:09:00,73.7,54.4,29.97,West,276,1.0,1.0,51,0.00,,,0.00,0,Wunderground v.1.15,2013-06-20 19:09:00,
2013-06-20 12:14:00,74.2,54.9,29.96,NNW,339,2.0,2.0,51,0.00,,,0.00,0,Wunderground v.1.15,2013-06-20 19:14:00,
2013-06-20 12:19:00,74.3,55.0,29.97,NW,304,2.0,2.0,51,0.00,,,0.00,0,Wunderground v.1.15,2013-06-20 19:19:00,
2013-06-20 12:29:00,75.2,52.4,29.96,South,185,1.0,1.0,45,0.00,,,0.00,0,Wunderground v.1.15,2013-06-20 19:29:00,
2013-06-20 12:39:00,76.1,56.7,29.96,North,349,3.0,3.0,51,0.00,,,0.00,0,Wunderground v.1.15,2013-06-20 19:39:00,
2013-06-20 12:44:00,76.0,57.1,29.96,NW,309,2.0,3.0,52,0.00,,,0.00,0,Wunderground v.1.15,2013-06-20 19:44:00,
2013-06-20 12:49:00,76.6,57.7,29.96,WNW,301,0.0,0.0,52,0.00,,,0.00,0,Wunderground v.1.15,2013-06-20 19:49:00,
2013-06-20 12:59:00,76.9,56.8,29.96,NW,321,5.0,5.0,50,0.00,,,0.00,0,Wunderground v.1.15,2013-06-20 19:59:00,
2013-06-20 13:04:00,76.7,56.1,29.96,WNW,285,4.0,5.0,49,0.00,,,0.00,0,Wunderground v.1.15,2013-06-20 20:04:00,
2013-06-20 13:09:00,76.1,53.2,29.96,NW,312,2.0,2.0,45,0.00,,,0.00,0,Wunderground v.1.15,2013-06-20 20:09:00,
2013-06-20 13:19:00,77.0,54.0,29.96,WNW,287,2.0,2.0,45,0.00,,,0.00,0,Wunderground v.1.15,2013-06-20 20:19:00,
2013-06-20 13:24:00,76.9,53.3,29.95,NNW,333,1.0,2.0,44,0.00,,,0.00,0,Wunderground v.1.15,2013-06-20 20:24:00,
2013-06-20 13:29:00,77.4,53.8,29.96,NNW,334,5.0,5.0,44,0.00,,,0.00,0,Wunderground v.1.15,2013-06-20 20:29:00,
2013-06-20 13:39:00,77.0,53.4,29.95,North,352,2.0,2.0,44,0.00,,,0.00,0,Wunderground v.1.15,2013-06-20 20:39:00,
2013-06-20 13:44:00,77.7,54.7,29.95,NW,306,5.0,5.0,45,0.00,,,0.00,0,Wunderground v.1.15,2013-06-20 20:44:00,
2013-06-20 13:49:00,78.3,59.8,29.96,SSW,193,2.0,2.0,53,0.00,,,0.00,0,Wunderground v.1.15,2013-06-20 20:49:00,
2013-06-20 13:59:00,78.2,59.1,29.96,WNW,300,4.0,4.0,52,0.00,,,0.00,0,Wunderground v.1.15,2013-06-20 20:59:00,
2013-06-20 14:09:00,78.0,59.5,29.95,SW,217,0.0,0.0,53,0.00,,,0.00,0,Wunderground v.1.15,2013-06-20 21:09:00,
2013-06-20 14:14:00,78.3,59.2,29.95,NW,309,4.0,4.0,52,0.00,,,0.00,0,Wunderground v.1.15,2013-06-20 21:14:00,
2013-06-20 14:19:00,78.6,59.5,29.95,WNW,288,2.0,2.0,52,0.00,,,0.00,0,Wunderground v.1.15,2013-06-20 21:19:00,
2013-06-20 14:29:00,78.7,59.6,29.95,WNW,284,0.0,0.0,52,0.00,,,0.00,0,Wunderground v.1.15,2013-06-20 21:29:00,
2013-06-20 14:34:00,78.7,59.6,29.95,WSW,244,1.0,1.0,52,0.00,,,0.00,0,Wunderground v.1.15,2013-06-20 21:34:00,
2013-06-20 14:39:00,79.0,59.3,29.95,SW,219,3.0,3.0,51,0.00,,,0.00,0,Wunderground v.1.15,2013-06-20 21:39:00,
2013-06-20 14:49:00,79.3,58.5,29.95,South,186,4.0,4.0,49,0.00,,,0.00,0,Wunderground v.1.15,2013-06-20 21:49:00,
2013-06-20 14:59:00,78.8,58.0,29.95,SW,220,4.0,4.0,49,0.00,,,0.00,0,Wunderground v.1.15,2013-06-20 21:59:00,
2013-06-20 15:04:00,78.5,58.3,29.95,NW,305,5.0,5.0,50,0.00,,,0.00,0,Wunderground v.1.15,2013-06-20 22:04:00,
2013-06-20 15:14:00,79.5,58.7,29.96,NW,309,2.0,2.0,49,0.00,,,0.00,0,Wunderground v.1.15,2013-06-20 22:14:00,
2013-06-20 15:19:00,79.7,56.5,29.96,SSW,201,1.0,1.0,45,0.00,,,0.00,0,Wunderground v.1.15,2013-06-20 22:19:00,
2013-06-20 15:24:00,80.0,54.8,29.96,NW,310,1.0,1.0,42,0.00,,,0.00,0,Wunderground v.1.15,2013-06-20 22:24:00,
2013-06-20 15:29:00,80.5,55.3,29.96,WNW,289,2.0,2.0,42,0.00,,,0.00,0,Wunderground v.1.15,2013-06-20 22:29:00,
2013-06-20 15:39:00,79.3,57.9,29.95,SSW,195,1.0,1.0,48,0.00,,,0.00,0,Wunderground v.1.15,2013-06-20 22:39:00,
2013-06-20 15:49:00,79.3,56.7,29.95,SW,215,3.0,3.0,46,0.00,,,0.00,0,Wunderground v.1.15,2013-06-20 22:49:00,
2013-06-20 15:54:00,78.0,56.1,29.95,SSW,209,5.0,5.0,47,0.00,,,0.00,0,Wunderground v.1.15,2013-06-20 22:54:00,
2013-06-20 16:04:00,76.8,56.2,29.95,SW,214,3.0,4.0,49,0.00,,,0.00,0,Wunderground v.1.15,2013-06-20 23:04:00,
2013-06-20 16:09:00,76.5,55.9,29.96,SSW,210,3.0,3.0,49,0.00,,,0.00,0,Wunderground v.1.15,2013-06-20 23:09:00,
2013-06-20 16:14:00,75.9,55.9,29.95,SSW,207,8.0,8.0,50,0.00,,,0.00,0,Wunderground v.1.15,2013-06-20 23:14:00,
2013-06-20 16:19:00,75.8,56.4,29.96,WSW,252,3.0,3.0,51,0.00,,,0.00,0,Wunderground v.1.15,2013-06-20 23:19:00,
2013-06-20 16:29:00,74.7,55.4,29.96,SW,231,3.0,3.0,51,0.00,,,0.00,0,Wunderground v.1.15,2013-06-20 23:29:00,
2013-06-20 16:34:00,74.5,55.7,29.96,WSW,238,4.0,4.0,52,0.00,,,0.00,0,Wunderground v.1.15,2013-06-20 23:34:00,
2013-06-20 16:39:00,74.1,54.3,29.96,SW,214,4.0,4.0,50,0.00,,,0.00,0,Wunderground v.1.15,2013-06-20 23:39:00,
2013-06-20 16:49:00,73.7,53.3,29.96,SW,215,7.0,7.0,49,0.00,,,0.00,0,Wunderground v.1.15,2013-06-20 23:49:00,
2013-06-20 16:59:00,73.0,55.4,29.96,SSW,198,5.0,5.0,54,0.00,,,0.00,0,Wunderground v.1.15,2013-06-20 23:59:00,
2013-06-20 17:04:00,72.6,55.0,29.96,South,180,1.0,5.0,54,0.00,,,0.00,0,Wunderground v.1.15,2013-06-21 00:04:00,
2013-06-20 17:09:00,72.3,54.7,29.96,SW,216,5.0,5.0,54,0.00,,,0.00,0,Wunderground v.1.15,2013-06-21 00:09:00,
2013-06-20 17:19:00,71.8,54.8,29.96,SSW,202,4.0,4.0,55,0.00,,,0.00,0,Wunderground v.1.15,2013-06-21 00:19:00,
2013-06-20 17:29:00,71.3,54.8,29.96,SSW,203,7.0,7.0,56,0.00,,,0.00,0,Wunderground v.1.15,2013-06-21 00:29:00,
2013-06-20 17:34:00,70.2,54.7,29.96,SSW,211,5.0,7.0,58,0.00,,,0.00,0,Wunderground v.1.15,2013-06-21 00:34:00,
2013-06-20 17:39:00,69.6,54.6,29.96,SSW,208,5.0,5.0,59,0.00,,,0.00,0,Wunderground v.1.15,2013-06-21 00:39:00,
2013-06-20 17:49:00,69.0,52.6,29.96,SSW,200,4.0,4.0,56,0.00,,,0.00,0,Wunderground v.1.15,2013-06-21 00:49:00,
2013-06-20 17:54:00,69.0,51.7,29.96,SSW,207,5.0,5.0,54,0.00,,,0.00,0,Wunderground v.1.15,2013-06-21 00:54:00,
2013-06-20 17:59:00,68.4,52.1,29.97,SSW,207,12.0,12.0,56,0.00,,,0.00,0,Wunderground v.1.15,2013-06-21 00:59:00,
2013-06-20 18:09:00,67.7,55.5,29.96,SSW,198,11.0,11.0,65,0.00,,,0.00,0,Wunderground v.1.15,2013-06-21 01:09:00,
2013-06-20 18:19:00,66.6,53.6,29.96,SSW,205,4.0,4.0,63,0.00,,,0.00,0,Wunderground v.1.15,2013-06-21 01:19:00,
2013-06-20 18:24:00,66.5,53.1,29.96,SW,216,11.0,11.0,62,0.00,,,0.00,0,Wunderground v.1.15,2013-06-21 01:24:00,
2013-06-20 18:29:00,65.8,53.3,29.97,SSW,209,6.0,6.0,64,0.00,,,0.00,0,Wunderground v.1.15,2013-06-21 01:29:00,
2013-06-20 18:39:00,65.2,54.0,29.97,SSW,204,3.0,3.0,67,0.00,,,0.00,0,Wunderground v.1.15,2013-06-21 01:39:00,
2013-06-20 18:49:00,64.6,52.1,29.97,SSW,193,6.0,6.0,64,0.00,,,0.00,0,Wunderground v.1.15,2013-06-21 01:49:00,
2013-06-20 18:59:00,64.3,48.3,29.98,SW,223,3.0,3.0,56,0.00,,,0.00,0,Wunderground v.1.15,2013-06-21 01:59:00,
2013-06-20 19:09:00,63.6,49.0,29.98,SSW,195,2.0,2.0,59,0.00,,,0.00,0,Wunderground v.1.15,2013-06-21 02:09:00,
2013-06-20 19:14:00,63.4,46.5,29.98,SSW,205,1.0,2.0,54,0.00,,,0.00,0,Wunderground v.1.15,2013-06-21 02:14:00,
2013-06-20 19:19:00,63.3,46.9,29.98,SSW,212,6.0,6.0,55,0.00,,,0.00,0,Wunderground v.1.15,2013-06-21 02:19:00,
2013-06-20 19:29:00,62.4,51.3,29.98,SW,214,10.0,10.0,67,0.00,,,0.00,0,Wunderground v.1.15,2013-06-21 02:29:00,
2013-06-20 19:34:00,62.1,50.2,29.98,SSW,202,12.0,12.0,65,0.00,,,0.00,0,Wunderground v.1.15,2013-06-21 02:34:00,
2013-06-20 19:44:00,61.4,51.5,29.99,SSW,195,11.0,11.0,70,0.00,,,0.00,0,Wunderground v.1.15,2013-06-21 02:44:00,
2013-06-20 19:49:00,61.1,52.7,29.98,SSW,208,4.0,4.0,74,0.00,,,0.00,0,Wunderground v.1.15,2013-06-21 02:49:00,
2013-06-20 19:59:00,60.2,52.2,29.99,SSW,198,10.0,10.0,75,0.00,,,0.00,0,Wunderground v.1.15,2013-06-21 02:59:00,
2013-06-20 20:04:00,59.8,50.4,29.99,SSW,196,12.0,12.0,71,0.00,,,0.00,0,Wunderground v.1.15,2013-06-21 03:04:00,
2013-06-20 20:09:00,59.4,53.9,29.99,SSW,201,7.0,7.0,82,0.00,,,0.00,0,Wunderground v.1.15,2013-06-21 03:09:00,
2013-06-20 20:19:00,58.9,44.6,29.99,South,185,7.0,7.0,59,0.00,,,0.00,0,Wunderground v.1.15,2013-06-21 03:19:00,
2013-06-20 20:29:00,58.3,43.6,29.99,SSW,201,9.0,9.0,58,0.00,,,0.00,0,Wunderground v.1.15,2013-06-21 03:29:00,
2013-06-20 20:39:00,57.7,48.4,29.99,SSW,208,4.0,4.0,71,0.00,,,0.00,0,Wunderground v.1.15,2013-06-21 03:39:00,
2013-06-20 20:44:00,57.5,45.4,29.98,SSW,210,3.0,4.0,64,0.00,,,0.00,0,Wunderground v.1.15,2013-06-21 03:44:00,
2013-06-20 20:49:00,57.3,45.2,29.98,SW,232,4.0,4.0,64,0.00,,,0.00,0,Wunderground v.1.15,2013-06-21 03:49:00,
2013-06-20 20:54:00,57.1,50.6,29.99,SSW,203,7.0,7.0,79,0.00,,,0.00,0,Wunderground v.1.15,2013-06-21 03:54:00,
2013-06-20 20:59:00,57.0,51.2,29.99,SSW,209,9.0,9.0,81,0.00,,,0.00,0,Wunderground v.1.15,2013-06-21 03:59:00,
2013-06-20 21:04:00,56.8,50.7,29.99,SSW,211,2.0,9.0,80,0.00,,,0.00,0,Wunderground v.1.15,2013-06-21 04:04:00,
2013-06-20 21:09:00,56.7,50.6,29.99,SSW,205,6.0,6.0,80,0.00,,,0.00,0,Wunderground v.1.15,2013-06-21 04:09:00,
2013-06-20 21:14:00,56.7,50.6,29.99,SW,217,4.0,6.0,80,0.00,,,0.00,0,Wunderground v.1.15,2013-06-21 04:14:00,
2013-06-20 21:19:00,56.6,50.2,29.99,SSW,200,2.0,2.0,79,0.00,,,0.00,0,Wunderground v.1.15,2013-06-21 04:19:00,
2013-06-20 21:24:00,56.6,49.8,29.99,SSW,204,3.0,3.0,78,0.00,,,0.00,0,Wunderground v.1.15,2013-06-21 04:24:00,
2013-06-20 21:29:00,56.6,49.5,30.00,SSW,209,2.0,2.0,77,0.00,,,0.00,0,Wunderground v.1.15,2013-06-21 04:29:00,
2013-06-20 21:39:00,56.6,49.5,30.00,SW,233,5.0,5.0,77,0.00,,,0.00,0,Wunderground v.1.15,2013-06-21 04:39:00,
2013-06-20 21:49:00,56.4,48.2,30.00,SW,222,1.0,1.0,74,0.00,,,0.00,0,Wunderground v.1.15,2013-06-21 04:49:00,
2013-06-20 21:59:00,56.1,45.3,30.00,West,259,1.0,1.0,67,0.00,,,0.00,0,Wunderground v.1.15,2013-06-21 04:59:00,
2013-06-20 22:09:00,55.8,45.0,30.00,ESE,114,0.0,0.0,67,0.00,,,0.00,0,Wunderground v.1.15,2013-06-21 05:09:00,
2013-06-20 22:14:00,55.7,44.9,30.00,WSW,257,0.0,0.0,67,0.00,,,0.00,0,Wunderground v.1.15,2013-06-21 05:14:00,
2013-06-20 22:24:00,55.6,44.8,29.99,SSW,210,1.0,1.0,67,0.00,,,0.00,0,Wunderground v.1.15,2013-06-21 05:24:00,
2013-06-20 22:29:00,55.5,48.1,29.99,WSW,250,0.0,0.0,76,0.00,,,0.00,0,Wunderground v.1.15,2013-06-21 05:29:00,
2013-06-20 22:34:00,55.5,49.4,29.99,WSW,248,0.0,0.0,80,0.00,,,0.00,0,Wunderground v.1.15,2013-06-21 05:34:00,
2013-06-20 22:44:00,55.5,49.8,29.99,NNE,18,5.0,5.0,81,0.00,,,0.00,0,Wunderground v.1.15,2013-06-21 05:44:00,
2013-06-20 22:49:00,55.7,50.0,30.00,North,353,1.0,1.0,81,0.00,,,0.00,0,Wunderground v.1.15,2013-06-21 05:49:00,
2013-06-20 22:59:00,55.7,49.6,30.00,WSW,238,1.0,1.0,80,0.00,,,0.00,0,Wunderground v.1.15,2013-06-21 05:59:00,
2013-06-20 23:04:00,55.7,49.6,29.99,WSW,238,0.0,1.0,80,0.00,,,0.00,0,Wunderground v.1.15,2013-06-21 06:04:00,
2013-06-20 23:14:00,55.9,49.5,30.00,South,187,0.0,2.0,79,0.00,,,0.00,0,Wunderground v.1.15,2013-06-21 06:14:00,
2013-06-20 23:24:00,55.9,49.5,29.99,SSW,202,1.0,1.0,79,0.00,,,0.00,0,Wunderground v.1.15,2013-06-21 06:24:00,
2013-06-20 23:29:00,55.9,49.5,29.99,SSW,192,0.0,0.0,79,0.00,,,0.00,0,Wunderground v.1.15,2013-06-21 06:29:00,
2013-06-20 23:34:00,55.8,49.4,29.99,SSW,200,1.0,1.0,79,0.00,,,0.00,0,Wunderground v.1.15,2013-06-21 06:34:00,
2013-06-20 23:39:00,55.6,49.5,29.99,South,186,1.0,1.0,80,0.00,,,0.00,0,Wunderground v.1.15,2013-06-21 06:39:00,
2013-06-20 23:54:00,55.2,49.5,30.00,South,187,2.0,2.0,81,0.00,,,0.00,0,Wunderground v.1.15,2013-06-21 06:54:00,
2013-06-20 23:59:00,55.0,48.9,30.00,SSE,167,0.0,0.0,80,0.00,,,0.00,0,Wunderground v.1.15,2013-06-21 06:59:00,